(113612) = 2002 TU54

Discovered at Socorro on 2002-10-02 by LINEAR.

Orbit

Orbit type: Main Belt

Note: WebGL enabled browser required.

epoch2024-03-31.0
epoch JD2460400.5
perihelion date2022-01-28.53453
perihelion JD2459608.03453
argument of perihelion (°)307.18560
ascending node (°)38.44750
inclination (°)2.52213
eccentricity0.0815196
perihelion distance (AU)2.6784319
Tisserand w.r.t. Jupiter3.3
ΔV w.r.t. Earth (km/sec)10.2
semimajor axis (AU)2.9161559
mean anomaly (°)156.84406
mean daily motion (°/day)0.19791910
aphelion distance (AU)3.154
period (years)4.98
P-vector [x]0.96824678
P-vector [y]-0.21315529
P-vector [z]-0.13062538
Q-vector [x]0.24849441
Q-vector [y]0.87778907
Q-vector [z]0.40955693
absolute magnitude15.79
phase slope0.15
uncertainty0
referenceMPEC 2024-F14
observations used748
oppositions19
arc length (days)8266
first opposition used2001
last opposition used2024
residual rms (arc-secs)0.73
perturbers coarse indicatorM-v
perturbers precise indicator003Ek
first observation date used2001-07-30.0
last observation date used2024-03-17.0
computer nameMPCLINUX
JD of orbit computation2456789.386398
perihelion JD uncertainty (days)1.1906E-04
argument of perihelion uncertainty (°)8.4338E-05
ascending node uncertainty (°)8.1160E-05
inclination uncertainty (°)3.5703E-06
eccentricity uncertainty 3.8773E-08
perihelion distance uncertainty (AU)1.1518E-07
Minimum Orbit Intersection Distances (in AU)
for orbit epoch: 2460400.5, reference: E2024-F14
Mercury2.28353
Venus1.95132
Earth1.67195
Mars1.29271
Jupiter2.17493
Saturn6.033
Uranus15.2863
Neptune27.0259

Observations

765 total observations over interval: 2001 07 30.38272 – 2024 03 17.224538
These data are available for download (format description).

Date (UT) J2000 RA J2000 Dec Magn Location Ref
2001 07 30.38272 19 53 56.67 -24 51 49.6 20.2   644 – Palomar Mountain/NEAT MPS 100685
2001 07 30.39383 19 53 56.10 -24 51 50.1 20.9   644 – Palomar Mountain/NEAT MPS 100685
2001 07 30.40460 19 53 55.51 -24 51 51.8 20.9   644 – Palomar Mountain/NEAT MPS 100685
2002 10 02.42851 03 18 00.47 +18 10 19.6 20.1   704 – Lincoln Laboratory ETS, New Mexico MPS 63932
2002 10 02.44414 03 18 00.21 +18 10 19.1 20.4   704 – Lincoln Laboratory ETS, New Mexico MPS 63932
2002 10 02.45971 03 17 59.87 +18 10 18.3 20.7   704 – Lincoln Laboratory ETS, New Mexico MPS 63932
2002 10 03.34750 03 17 41.51 +18 09 52.9 20.5   704 – Lincoln Laboratory ETS, New Mexico MPS 63932
2002 10 03.37959 03 17 40.78 +18 09 50.6 20.6   704 – Lincoln Laboratory ETS, New Mexico MPS 63932
2002 10 03.39538 03 17 40.47 +18 09 50.2 20.6   704 – Lincoln Laboratory ETS, New Mexico MPS 63932
2002 10 07.34793 03 16 02.79 +18 06 58.6 19.6 R 699 – Lowell Observatory-LONEOS MPS 63932
2002 10 07.35088 03 16 02.66 +18 06 56.8 19.5   704 – Lincoln Laboratory ETS, New Mexico MPS 63932
2002 10 07.36636 03 16 02.22 +18 06 58.7   699 – Lowell Observatory-LONEOS MPS 63932
2002 10 07.36643 03 16 02.22 +18 06 56.4 20.5   704 – Lincoln Laboratory ETS, New Mexico MPS 63932
2002 10 07.38190 03 16 01.71 +18 06 55.4 20.0   704 – Lincoln Laboratory ETS, New Mexico MPS 63932
2002 10 07.38477 03 16 01.63 +18 06 56.1   699 – Lowell Observatory-LONEOS MPS 63932
2002 10 07.39752 03 16 01.40 +18 06 56.7 19.6   704 – Lincoln Laboratory ETS, New Mexico MPS 63932
2002 10 07.40320 03 16 01.09 +18 06 55.2   699 – Lowell Observatory-LONEOS MPS 63932
2002 10 11.32602 03 14 01.27 +18 02 36.4 19.4   704 – Lincoln Laboratory ETS, New Mexico MPS 63932
2002 10 11.34192 03 14 00.73 +18 02 35.7 20.2   704 – Lincoln Laboratory ETS, New Mexico MPS 63932
2002 10 11.35786 03 14 00.08 +18 02 34.1 20.0   704 – Lincoln Laboratory ETS, New Mexico MPS 63932
2002 10 11.37371 03 13 59.60 +18 02 33.0 20.2   704 – Lincoln Laboratory ETS, New Mexico MPS 63932
2002 10 31.39808 02 59 10.58 +17 21 02.8 19.8   644 – Palomar Mountain/NEAT MPS 68032
2002 10 31.41905 02 59 09.43 +17 20 59.6 20.5   644 – Palomar Mountain/NEAT MPS 68032
2002 10 31.43981 02 59 08.31 +17 20 55.9 19.3   644 – Palomar Mountain/NEAT MPS 68032
2002 11 12.34881 02 48 33.81 +16 46 06.5 19.3   644 – Palomar Mountain/NEAT MPS 66061
2002 11 12.36968 02 48 32.69 +16 46 02.5 19.3   644 – Palomar Mountain/NEAT MPS 66061
2002 11 12.39085 02 48 31.53 +16 45 58.7 19.4   644 – Palomar Mountain/NEAT MPS 66061
2002 11 14.24320 02 46 54.86 +16 40 23.7 19.9 V 291 – LPL/Spacewatch II MPS 66061
2002 11 14.26720 02 46 53.57 +16 40 19.4 19.6 V 291 – LPL/Spacewatch II MPS 66061
2002 11 14.29140 02 46 52.25 +16 40 15.0 19.6 V 291 – LPL/Spacewatch II MPS 66061
2004 01 22.30846 09 12 30.87 +19 59 06.7 20.0   704 – Lincoln Laboratory ETS, New Mexico MPS 98776
2004 01 22.32147 09 12 30.26 +19 59 09.3 20.2   704 – Lincoln Laboratory ETS, New Mexico MPS 98776
2004 01 22.33423 09 12 29.56 +19 59 12.4 20.0   704 – Lincoln Laboratory ETS, New Mexico MPS 98776
2004 01 22.34725 09 12 28.99 +19 59 15.5 20.0   704 – Lincoln Laboratory ETS, New Mexico MPS 98776
2004 01 30.28051 09 05 40.40 +20 30 05.4 19.6 C 704 – Lincoln Laboratory ETS, New Mexico MPS 294122
2004 01 30.29313 09 05 39.62 +20 30 09.1 20.1 C 704 – Lincoln Laboratory ETS, New Mexico MPS 294122
2004 01 30.30580 09 05 38.86 +20 30 12.1 20.0 C 704 – Lincoln Laboratory ETS, New Mexico MPS 294122
2004 01 30.31832 09 05 38.13 +20 30 17.2 18.0 C 704 – Lincoln Laboratory ETS, New Mexico MPS 294122
2004 02 11.18352 08 55 11.81 +21 11 26.5 20.4 V 691 – Steward Observatory, Kitt Peak-Spacewatch MPS 98776
2004 02 11.21092 08 55 10.36 +21 11 31.6 20.5 V 691 – Steward Observatory, Kitt Peak-Spacewatch MPS 98776
2004 02 11.23904 08 55 08.88 +21 11 36.8 20.7 V 691 – Steward Observatory, Kitt Peak-Spacewatch MPS 98776
2004 02 13.20332 08 53 28.96 +21 17 29.1 20.5 V 291 – LPL/Spacewatch II MPS 100685
2004 02 13.22477 08 53 27.86 +21 17 33.2 20.7 V 291 – LPL/Spacewatch II MPS 100685
2004 02 13.24635 08 53 26.73 +21 17 36.7 21.3 V 291 – LPL/Spacewatch II MPS 100685
2004 03 18.235590 08 34 47.987 +22 00 15.90 21.67 V 645 – Apache Point-Sloan Digital Sky Survey MPS 136972
2004 03 18.239062 08 34 47.938 +22 00 15.68 22.46   645 – Apache Point-Sloan Digital Sky Survey MPS 136972
2004 04 15.179400 08 38 54.623 +21 16 12.19 21.29 V 645 – Apache Point-Sloan Digital Sky Survey MPS 136972
2004 04 15.182872 08 38 54.722 +21 16 11.61 22.18   645 – Apache Point-Sloan Digital Sky Survey MPS 136972
2005 04 02.40860 13 57 45.69 -11 07 14.6 19.4 R G96 – Mt. Lemmon Survey MPS 130201
2005 04 02.41390 13 57 45.47 -11 07 13.5 19.4 R G96 – Mt. Lemmon Survey MPS 130201
2005 04 02.41920 13 57 45.23 -11 07 12.6 19.3 R G96 – Mt. Lemmon Survey MPS 130201
2005 04 02.42450 13 57 44.97 -11 07 11.7 19.4 R G96 – Mt. Lemmon Survey MPS 130201
2005 04 06.37013 13 54 52.06 -10 53 47.8 20.4 V 691 – Steward Observatory, Kitt Peak-Spacewatch MPS 130708
2005 04 06.38780 13 54 51.22 -10 53 44.3 20.5 V 691 – Steward Observatory, Kitt Peak-Spacewatch MPS 130708
2005 04 06.40547 13 54 50.39 -10 53 40.1 20.7 V 691 – Steward Observatory, Kitt Peak-Spacewatch MPS 130708
2005 04 17.27351 13 46 14.16 -10 13 09.1 19.9 V 691 – Steward Observatory, Kitt Peak-Spacewatch MPS 132578
2005 04 17.30376 13 46 12.64 -10 13 01.9 20.0 V 691 – Steward Observatory, Kitt Peak-Spacewatch MPS 132578
2005 04 17.32241 13 46 11.68 -10 12 57.8 20.1 V 691 – Steward Observatory, Kitt Peak-Spacewatch MPS 132578
2005 05 04.34109 13 32 51.59 -09 09 41.5 19.8 r 568 – Maunakea MPS 133952
2005 05 04.36902 13 32 50.35 -09 09 35.9 20.0 r 568 – Maunakea MPS 133952
2005 05 04.41657 13 32 48.22 -09 09 26.2 20.2 r 568 – Maunakea MPS 133952
2005 05 05.38616 13 32 06.98 -09 06 13.3 19.9 r 568 – Maunakea MPS 133952
2005 05 08.29291 13 30 07.59 -08 56 55.9 19.6 R G96 – Mt. Lemmon Survey MPS 133952
2005 05 08.30316 13 30 07.17 -08 56 54.2 19.3 R G96 – Mt. Lemmon Survey MPS 133952
2005 05 08.31317 13 30 06.77 -08 56 52.5 19.4 R G96 – Mt. Lemmon Survey MPS 133952
2005 05 08.32318 13 30 06.34 -08 56 50.3 19.6 R G96 – Mt. Lemmon Survey MPS 133952
2005 05 10.16326 13 28 54.72 -08 51 14.1 19.1 R 807 – Cerro Tololo Observatory, La Serena MPS 135333
2005 05 10.24777 13 28 51.40 -08 50 59.2   807 – Cerro Tololo Observatory, La Serena MPS 135333
2005 05 11.05675 13 28 21.20 -08 48 39.4   807 – Cerro Tololo Observatory, La Serena MPS 135333
2006 07 20.24481 20 07 33.98 -24 13 50.1 19.1 R 644 – Palomar Mountain/NEAT MPS 175392
2006 07 20.26506 20 07 32.83 -24 13 53.5 19.0 R 644 – Palomar Mountain/NEAT MPS 175392
2006 07 20.28538 20 07 31.72 -24 13 57.0 18.7 R 644 – Palomar Mountain/NEAT MPS 175392
2007 10 10.37691 03 17 09.31 +18 15 30.0 20.1 V 691 – Steward Observatory, Kitt Peak-Spacewatch MPS 219924
2007 10 10.39454 03 17 08.74 +18 15 29.0 20.0 V 691 – Steward Observatory, Kitt Peak-Spacewatch MPS 219924
2007 10 10.41219 03 17 08.15 +18 15 27.9 19.8 V 691 – Steward Observatory, Kitt Peak-Spacewatch MPS 219924
2007 10 11.32094 03 16 39.73 +18 14 26.6 20.3   704 – Lincoln Laboratory ETS, New Mexico MPS 219924
2007 10 11.33220 03 16 39.32 +18 14 25.5 20.6   704 – Lincoln Laboratory ETS, New Mexico MPS 219924
2007 10 11.34337 03 16 38.94 +18 14 25.0 20.9   704 – Lincoln Laboratory ETS, New Mexico MPS 219924
2007 10 14.36453 03 14 55.43 +18 10 30.8 19.5 V 691 – Steward Observatory, Kitt Peak-Spacewatch MPS 222114
2007 10 14.38220 03 14 54.79 +18 10 29.0 19.6 V 691 – Steward Observatory, Kitt Peak-Spacewatch MPS 222114
2007 10 14.39987 03 14 54.10 +18 10 27.7 19.7 V 691 – Steward Observatory, Kitt Peak-Spacewatch MPS 222114
2007 10 15.34579 03 14 19.35 +18 09 03.8 19.6 V 703 – Catalina Sky Survey MPS 222114
2007 10 15.35380 03 14 18.96 +18 09 03.6 19.1 V 703 – Catalina Sky Survey MPS 222114
2007 10 15.36184 03 14 18.70 +18 09 02.6 19.6 V 703 – Catalina Sky Survey MPS 222114
2007 10 15.36990 03 14 18.42 +18 09 01.1 19.3 V 703 – Catalina Sky Survey MPS 222114
2007 10 18.37873 03 12 19.77 +18 04 05.4 19.3 V 691 – Steward Observatory, Kitt Peak-Spacewatch MPS 222114
2007 10 18.39642 03 12 19.02 +18 04 03.7 19.4 V 691 – Steward Observatory, Kitt Peak-Spacewatch MPS 222114
